ATLAS 5 CENTAUR DEB, 44040

Orbit data source: Space-Track

ATLAS 5 CENTAUR DEB, 44040 is space debris in HEO originally from a launch on Wed, 17 Sep 2014 UTC launched from the Air Force Eastern Test Range (AFETR). Debris objects in space refer to the collection of defunct objects orbiting the Earth. Examples of debris include non-operational satellites, rocket bodies, and fragments generated from explosions, collisions, or faulty payload assembly.

Loading next visibility...
ATLAS 5 CENTAUR DEB details
Identifier
44040, 2014-055CA
Orbit
HEO
Last TLE update21 hours ago
Origin
Flag of USULA (US)
ManufacturerUnknown
MissionSpacecraft
Bus & MotorUnknown
MassUnknown
Launch date (UTC)
2014-09-17 (10 years ago)
Launch vehicleUnknown
Launch site
Air Force Eastern Test Range (AFETR)
Object type
Payload
Rocket body
Debris
Shape & HBRUnknown
Radar Cross SectionSmall (<0.1 m²)

Expand to show TLE details & history

TLE from 21 hours ago
0 ATLAS 5 CENTAUR DEB
1 44040U 14055CA  24360.70980575 -.00000018  00000-0  00000-0 0  9993
2 44040  19.6909 189.8442 4901312  86.1830 326.3692  1.88067331 41722
Epoch: 2024-12-25T17:02Z
Definitive object data (Epoch: 2024-12-25T17:02:07.216Z)
Latitude
Longitude-160.35449°
Altitude13,986.587 km
Speed4.977 km/s
True Right ascension12h 39m 30s
True Declination0° 00' 00"
Sunlit
Object was in daylight at TLE epoch
Visualization TLE readout
Latitude-19.65942°
Longitude112.93038°
Altitude34,675.224 km
Speed2.246 km/s
Apparent Right ascension06h 24m 24s
Apparent Declination-24° 18' 11"
Sunlit
Object is in daylight
Visualization observer readout
Local Sidereal Time13:21:07
Azimuth258.958° W
Elevation-25.803°
Doppler factor1
Orbital elements
Apogee altitude34,937.605 km
Perigee altitude7,758.61 km
Semi-major axis27,726.244 km
Eccentricity0.4901312
Inclination19.6909°
RAAN189.8442°
Arg. of periapsis86.183°
True anomaly273.96861°
Mean anomaly326.3692°
Eccentric anomaly302.75104°
Mean motion0.47012 °/min
BSTARUnknown
Orbital period765.77 mins
Loading maneuver chart data...

ATLAS 5 CENTAUR DEB Visibility forecast

Observer location: undefined°, undefined

Span
Click to sort rows by Start time (UTC) header in descending order
Start Az.
Max El. time (UTC)
Max El. Az.
Max El.
End time (UTC)
End Az.
101 mins2024-12-26 19:09:21.205Z255.104° W2024-12-26 19:52:21.205Z181.53° SSW39.141°2024-12-26 20:50:21.205Z111.015° ESE
|